Home   Weather   Lloydminster   Past weeks

Flag for Canada Past Weather in Lloydminster, Alberta, Canada — Yesterday and Last 2 Weeks

Now
25 °F

Overcast.


Feels Like: 20 °F
Forecast: 25 / 33 °F
Wind: 3 mph from Southwest

Location: Lloydminister

Current Time: Jan 19, 2017 at 10:58:41 pm

Latest Report: Jan 19, 2017 at 10:00 pm


Visibility: 15 mi

Pressure: 29.29 "Hg (26.98 "Hg at 648m altitude)

Humidity: 100%

Dew Point: 25 °F

Location of LloydminsterLocation

Past Weather in Lloydminster — Graph

°F

Lloydminster Temperature Yesterday

Maximum temperature yesterday: 43 °F (at 3:00 pm)
Minimum temperature yesterday: 30 °F (at 11:00 pm)
Average temperature yesterday: 35 °F

High & Low Weather Summary for the Past Weeks

 TemperatureHumidityPressure
High43 °F (Jan 17, 3:00 pm)100% (Jan 19, 6:00 pm)30.57 "Hg (Jan 19, 6:00 pm)
Low-27 °F (Jan 12, 8:00 am)51% (Jan 16, 12:00 pm)29.24 "Hg (Jan 18, 11:00 am)
Average7 °F78%30.01 "Hg
* Reported Jan 4 9:00 pm — Jan 19 9:00 pm, Lloydminster, Weather by CustomWeather, © 2017

Note: Actual official high and low records may vary slightly from our data, if they occured in-between our weather recording intervals... More about our weather records

Advertising

Lloydminster Weather History for the Previous 24 Hours

Scroll right to see more
 ConditionsComfort  
Time TempWeatherWind HumidityBarometerVisibility
9:00 pm
Thu, Jan 19
28 °FOvercast.6 mph93%29.29 "Hg15 mi
8:00 pm25 °FPassing clouds.5 mph100%29.30 "Hg15 mi
7:00 pm27 °FPassing clouds.2 mph93%29.30 "Hg15 mi
6:00 pm28 °FPassing clouds.8 mph100%29.30 "Hg15 mi
5:00 pm34 °FPassing clouds.5 mph87%29.30 "Hg15 mi
4:00 pm36 °FScattered clouds.7 mph81%29.28 "Hg15 mi
3:00 pm37 °FPartly sunny.5 mph75%29.28 "Hg15 mi
2:00 pm37 °FPartly sunny.5 mph75%29.28 "Hg15 mi
1:00 pm36 °FOvercast.7 mph75%29.30 "Hg15 mi
12:00 pm34 °FOvercast.10 mph81%29.32 "Hg15 mi
11:00 am32 °FOvercast.5 mph80%29.34 "Hg15 mi
10:00 am30 °FOvercast.3 mph80%29.35 "Hg15 mi
9:00 am28 °FOvercast.7 mph86%29.34 "Hg15 mi
8:00 am27 °FPassing clouds.3 mph86%29.34 "Hg15 mi
7:00 am27 °FOvercast.2 mph86%29.35 "Hg15 mi
6:00 am27 °FMostly cloudy.5 mph86%29.35 "Hg9 mi
5:00 am28 °FClear.6 mph80%29.32 "Hg9 mi
4:00 am30 °FClear.13 mph80%29.31 "Hg9 mi
3:00 am28 °FClear.15 mph86%29.32 "Hg9 mi
2:00 am32 °FClear.13 mph80%29.29 "Hg9 mi
1:00 am32 °FClear.12 mph87%29.29 "Hg9 mi
12:00 am34 °FClear.13 mph81%29.29 "Hg9 mi
11:00 pm
Wed, Jan 18
30 °FClear.12 mph86%29.30 "Hg9 mi
10:00 pm32 °FClear.8 mph87%29.29 "Hg15 mi
Weather by CustomWeather, © 2017

See weather overviewHow to use our weather pages